RYR1DZI LERS-EGSS

Flight info

Callsign RYR1DZI
Flight time N/A
Altitude 32000
Route NATPI DCT EVNAM DCT TUPAR UN861 DIKRO UM185 TELTU
Aircraft B738/M-SDE3FGILRWY/SB1

Departure

Time 2026-04-30 21:35
Airport Reus Airport (LERS)

Arrival

Time N/A
Airport London Stansted Airport (EGSS)
Time Latitude Longitude Altitude Speed Heading
2026-04-30 21:20 41.14694 1.15673 238 ft 0 kts 341°
2026-04-30 21:29 41.14690 1.15675 238 ft 2 kts 341°
2026-04-30 21:30 41.14659 1.15688 238 ft 2 kts 341°
2026-04-30 21:31 41.14625 1.15723 238 ft 0 kts 249°
2026-04-30 21:33 41.14601 1.15640 238 ft 18 kts 249°
2026-04-30 21:33 41.14540 1.15565 238 ft 12 kts 176°
2026-04-30 21:34 41.14461 1.15600 238 ft 12 kts 158°
2026-04-30 21:34 41.14676 1.16501 239 ft 119 kts 69°
2026-04-30 21:34 41.15050 1.17751 389 ft 162 kts 68°
2026-04-30 21:35 41.15467 1.19133 1231 ft 160 kts 68°
2026-04-30 21:35 41.15895 1.20570 1901 ft 177 kts 70°
2026-04-30 21:35 41.16369 1.22176 2440 ft 196 kts 70°
2026-04-30 21:35 41.16899 1.23947 2813 ft 215 kts 70°
2026-04-30 21:36 41.17471 1.25846 3249 ft 234 kts 70°
2026-04-30 21:36 41.18095 1.27917 3895 ft 248 kts 69°
2026-04-30 21:37 41.20112 1.34599 6322 ft 270 kts 68°
2026-04-30 21:37 41.20932 1.36877 7045 ft 278 kts 52°
2026-04-30 21:37 41.22424 1.38494 7877 ft 280 kts 23°
2026-04-30 21:37 41.24317 1.38991 8749 ft 280 kts 356°
2026-04-30 21:38 41.26236 1.38564 9617 ft 282 kts 345°
2026-04-30 21:38 41.28151 1.37888 10386 ft 287 kts 343°
2026-04-30 21:38 41.30145 1.37132 10701 ft 311 kts 343°
2026-04-30 21:38 41.32302 1.36305 10985 ft 332 kts 343°
2026-04-30 21:39 41.34549 1.35452 11617 ft 340 kts 343°
2026-04-30 21:39 41.36840 1.34592 12376 ft 344 kts 343°
2026-04-30 21:39 41.39155 1.33732 13156 ft 347 kts 343°
2026-04-30 21:39 41.41498 1.32868 13907 ft 352 kts 343°
2026-04-30 21:40 41.43877 1.31994 14599 ft 356 kts 343°
2026-04-30 21:40 41.46279 1.31114 15289 ft 360 kts 343°
2026-04-30 21:40 41.48707 1.30225 15972 ft 364 kts 343°
2026-04-30 21:40 41.51165 1.29327 16659 ft 368 kts 343°
2026-04-30 21:41 41.53650 1.28418 17316 ft 372 kts 343°
2026-04-30 21:41 41.56172 1.27540 17967 ft 377 kts 344°
2026-04-30 21:41 41.58736 1.26710 18599 ft 381 kts 345°
2026-04-30 21:41 41.61326 1.25892 19187 ft 384 kts 345°
2026-04-30 21:42 41.63937 1.25072 19804 ft 387 kts 345°
2026-04-30 21:42 41.66564 1.24243 20388 ft 389 kts 345°
2026-04-30 21:42 41.69211 1.23402 20954 ft 393 kts 344°
2026-04-30 21:42 41.71878 1.22550 21519 ft 396 kts 344°
2026-04-30 21:43 41.74567 1.21686 22064 ft 399 kts 344°
2026-04-30 21:43 41.77275 1.20814 22612 ft 402 kts 344°
2026-04-30 21:43 41.80007 1.19932 23141 ft 405 kts 343°
2026-04-30 21:43 41.82760 1.19042 23658 ft 409 kts 343°
2026-04-30 21:44 41.85539 1.18142 24098 ft 412 kts 343°
2026-04-30 21:44 41.88334 1.17236 24545 ft 414 kts 343°
2026-04-30 21:44 41.91143 1.16326 24996 ft 416 kts 343°
2026-04-30 21:44 41.93965 1.15409 25428 ft 418 kts 343°
2026-04-30 21:45 41.96804 1.14487 25836 ft 421 kts 343°
2026-04-30 21:45 41.99660 1.13558 26249 ft 423 kts 343°
2026-04-30 21:45 42.02530 1.12624 26671 ft 425 kts 343°
2026-04-30 21:45 42.05403 1.11688 27077 ft 428 kts 343°
2026-04-30 21:46 42.08306 1.10741 27485 ft 430 kts 343°
2026-04-30 21:46 42.11208 1.09794 28018 ft 429 kts 343°
2026-04-30 21:46 42.14095 1.08853 28655 ft 425 kts 343°
2026-04-30 21:46 42.16918 1.07931 29283 ft 422 kts 342°
2026-04-30 21:47 42.19767 1.07002 29758 ft 421 kts 342°
2026-04-30 21:47 42.22613 1.06069 30267 ft 420 kts 342°
2026-04-30 21:47 42.25446 1.05140 30743 ft 418 kts 342°
2026-04-30 21:47 42.28268 1.04212 31173 ft 418 kts 342°
2026-04-30 21:48 42.31092 1.03284 31556 ft 418 kts 342°
2026-04-30 21:48 42.33913 1.02355 31956 ft 417 kts 342°
2026-04-30 21:48 42.36735 1.01425 32215 ft 420 kts 342°
2026-04-30 21:48 42.39599 1.00478 32195 ft 427 kts 342°
2026-04-30 21:49 42.45471 0.98534 32200 ft 441 kts 342°
2026-04-30 21:49 42.51508 0.96537 32206 ft 453 kts 342°
2026-04-30 21:50 42.57651 0.94507 32209 ft 455 kts 342°
2026-04-30 21:50 42.63813 0.92465 32210 ft 456 kts 342°
2026-04-30 21:51 42.69970 0.90419 32205 ft 455 kts 342°
2026-04-30 21:51 42.76102 0.88376 32203 ft 453 kts 342°
2026-04-30 21:52 42.82206 0.86338 32208 ft 451 kts 342°
2026-04-30 21:52 42.88284 0.84303 32199 ft 448 kts 342°
2026-04-30 21:53 42.94329 0.82277 32213 ft 446 kts 342°
2026-04-30 21:53 43.00359 0.80250 32201 ft 446 kts 342°
2026-04-30 21:54 43.06382 0.78221 32190 ft 446 kts 342°
2026-04-30 21:54 43.12394 0.76192 32186 ft 445 kts 342°
2026-04-30 21:55 43.18399 0.74162 32191 ft 444 kts 342°
2026-04-30 21:55 43.24408 0.72127 32186 ft 445 kts 342°
2026-04-30 21:56 43.30416 0.70087 32189 ft 445 kts 342°
2026-04-30 21:56 43.36434 0.68040 32187 ft 446 kts 342°
2026-04-30 21:57 43.42454 0.65988 32188 ft 446 kts 342°
2026-04-30 21:57 43.48482 0.63929 32179 ft 447 kts 342°
2026-04-30 21:58 43.54473 0.61879 32182 ft 447 kts 341°
2026-04-30 21:58 43.60509 0.59808 32176 ft 447 kts 341°
2026-04-30 21:59 43.66586 0.57720 32175 ft 447 kts 341°
2026-04-30 22:00 43.75595 0.54617 32171 ft 447 kts 341°
2026-04-30 22:00 43.84635 0.51493 32175 ft 446 kts 341°
2026-04-30 22:01 43.90657 0.49406 32179 ft 446 kts 341°
2026-04-30 22:01 43.96662 0.47321 32174 ft 443 kts 341°
2026-04-30 22:02 44.01629 0.45594 32187 ft 442 kts 341°
2026-04-30 22:02 44.07589 0.43516 32183 ft 441 kts 341°
2026-04-30 22:03 44.13540 0.41437 32185 ft 440 kts 341°
2026-04-30 22:03 44.19479 0.39358 32182 ft 440 kts 341°
2026-04-30 22:04 44.25414 0.37276 32186 ft 440 kts 341°
2026-04-30 22:05 44.34327 0.34141 32175 ft 441 kts 341°
2026-04-30 22:05 44.40279 0.32042 32182 ft 442 kts 341°
2026-04-30 22:06 44.46246 0.29933 32185 ft 443 kts 341°
2026-04-30 22:06 44.55226 0.26752 32180 ft 445 kts 341°
2026-04-30 22:07 44.61231 0.24619 32187 ft 445 kts 342°
2026-04-30 22:07 44.67242 0.22479 32189 ft 446 kts 342°
2026-04-30 22:08 44.73263 0.20332 32191 ft 447 kts 342°
2026-04-30 22:08 44.79290 0.18178 32188 ft 447 kts 342°
2026-04-30 22:09 44.85319 0.16018 32185 ft 447 kts 342°
2026-04-30 22:09 44.91346 0.13854 32188 ft 447 kts 343°
2026-04-30 22:10 44.97370 0.11686 32186 ft 447 kts 343°
2026-04-30 22:10 45.03392 0.09515 32183 ft 447 kts 343°
2026-04-30 22:11 45.12381 0.06265 32190 ft 447 kts 343°
2026-04-30 22:12 45.18404 0.04081 32189 ft 447 kts 344°
2026-04-30 22:12 45.24434 0.01890 32188 ft 448 kts 344°
2026-04-30 22:13 45.30479 -0.00311 32188 ft 449 kts 344°
2026-04-30 22:13 45.36537 -0.02522 32189 ft 450 kts 344°
2026-04-30 22:14 45.42611 -0.04744 32188 ft 451 kts 345°
2026-04-30 22:14 45.48698 -0.06976 32182 ft 452 kts 345°
2026-04-30 22:15 45.54801 -0.09218 32187 ft 453 kts 345°
2026-04-30 22:15 45.60915 -0.11469 32184 ft 454 kts 345°
2026-04-30 22:16 45.67037 -0.13728 32187 ft 455 kts 345°
2026-04-30 22:17 45.79288 -0.18265 32185 ft 455 kts 345°
2026-04-30 22:17 45.88436 -0.21666 32178 ft 455 kts 346°
2026-04-30 22:18 45.97620 -0.25092 32180 ft 455 kts 346°
2026-04-30 22:19 46.06806 -0.28530 32177 ft 455 kts 346°
2026-04-30 22:20 46.16007 -0.31987 32173 ft 456 kts 346°
2026-04-30 22:20 46.25226 -0.35462 32174 ft 457 kts 346°
2026-04-30 22:21 46.31387 -0.37791 32173 ft 458 kts 346°
2026-04-30 22:21 46.37556 -0.40128 32169 ft 459 kts 346°
2026-04-30 22:22 46.43735 -0.42475 32168 ft 459 kts 346°
2026-04-30 22:22 46.49922 -0.44830 32167 ft 460 kts 346°
2026-04-30 22:23 46.56117 -0.47194 32167 ft 460 kts 346°
2026-04-30 22:23 46.62314 -0.49565 32162 ft 461 kts 346°
2026-04-30 22:24 46.68520 -0.51944 32169 ft 461 kts 346°
2026-04-30 22:24 46.74730 -0.54331 32169 ft 462 kts 346°
2026-04-30 22:25 46.80944 -0.56725 32169 ft 462 kts 346°
2026-04-30 22:25 46.87166 -0.59127 32167 ft 463 kts 346°
2026-04-30 22:26 46.96512 -0.62747 32169 ft 463 kts 346°
2026-04-30 22:27 47.02750 -0.65170 32168 ft 464 kts 346°
2026-04-30 22:27 47.12113 -0.68819 32165 ft 465 kts 345°
2026-04-30 22:28 47.21492 -0.72487 32166 ft 465 kts 345°
2026-04-30 22:29 47.34008 -0.77403 32167 ft 466 kts 345°
2026-04-30 22:31 47.56004 -0.85631 32158 ft 466 kts 354°
2026-04-30 22:32 47.72179 -0.87459 32157 ft 467 kts 356°
2026-04-30 22:33 47.88326 -0.89413 32156 ft 467 kts 355°
2026-04-30 22:35 48.04540 -0.91420 32159 ft 468 kts 355°
2026-04-30 22:36 48.20769 -0.93437 32159 ft 468 kts 355°
2026-04-30 22:37 48.33751 -0.95059 32159 ft 468 kts 355°
2026-04-30 22:38 48.46729 -0.96689 32156 ft 468 kts 355°
2026-04-30 22:39 48.56463 -0.97918 32154 ft 468 kts 355°
2026-04-30 22:40 48.75945 -1.00391 32155 ft 469 kts 355°
2026-04-30 22:41 48.92154 -1.02462 32151 ft 469 kts 355°
2026-04-30 22:43 49.11656 -1.04973 32145 ft 468 kts 355°
2026-04-30 22:44 49.24634 -1.06655 32146 ft 467 kts 355°
2026-04-30 22:45 49.44066 -1.09190 32136 ft 467 kts 355°
2026-04-30 22:46 49.50545 -1.09294 32132 ft 466 kts 10°
2026-04-30 22:47 49.63156 -1.05142 32141 ft 465 kts 13°
2026-04-30 22:48 49.74850 -1.01309 32136 ft 473 kts 12°
2026-04-30 22:49 49.94029 -0.95129 32142 ft 463 kts 13°
2026-04-30 22:50 50.06626 -0.91031 31859 ft 466 kts 13°
2026-04-30 22:51 50.12930 -0.88974 30872 ft 458 kts 13°
2026-04-30 22:51 50.19112 -0.86953 29817 ft 449 kts 15°
2026-04-30 22:52 50.22156 -0.85953 29279 ft 444 kts 15°
2026-04-30 22:52 50.28133 -0.83990 28263 ft 434 kts 15°
2026-04-30 22:53 50.34010 -0.82238 27270 ft 427 kts 10°
2026-04-30 22:53 50.39845 -0.81396 26307 ft 421 kts
2026-04-30 22:53 50.42756 -0.81032 25822 ft 418 kts
2026-04-30 22:54 50.48548 -0.80253 24856 ft 412 kts
2026-04-30 22:55 50.57021 -0.79022 23348 ft 407 kts
2026-04-30 22:55 50.62619 -0.78205 22333 ft 401 kts
2026-04-30 22:56 50.68139 -0.77399 21376 ft 395 kts
2026-04-30 22:56 50.76263 -0.76206 19994 ft 387 kts
2026-04-30 22:57 50.81555 -0.75131 19099 ft 378 kts 19°
2026-04-30 22:57 50.86411 -0.72231 18346 ft 371 kts 27°
2026-04-30 22:58 50.91147 -0.69102 17548 ft 367 kts 27°
2026-04-30 22:59 50.98251 -0.64454 16445 ft 368 kts 26°
2026-04-30 22:59 51.04751 -0.60238 15229 ft 358 kts 26°